Location: Caucaguita
(10.3578°N, 66.8025°W)
Time: 02:44:11
(UTC+00:00)

Cosmos 1634 Rocket - Pass Details

Date: 18 November 2025
Orbit: 958 x 992 km, 82.9° (Epoch: 09 December)

Event Time Altitude Azimuth Distance (km) Brightness Sun altitude
Rises 22:44:35 0° 171° (S) 3,696 7.2 -10.9°
Reaches altitude 10° 22:47:11 10° 166° (SSE) 2,746 6.4 -11.5°
Maximum altitude 22:53:14 49° 92° (E) 1,245 4.2 -12.9°
Drops below altitude 10° 22:59:14 10° 19° (NNE) 2,728 6.0 -14.3°
Sets 23:01:48 0° 14° (NNE) 3,670 6.7 -14.9°
